Location: Newark
(45.2500°N, 7.5833°E)
Time: 02:35:18
(UTC+00:00)

Vanguard 3 - Pass Details

Date: 30 January 2020
Orbit: 508 x 3263 km, 33.3° (Epoch: 25 February)

Event Time Altitude Azimuth Distance (km) Brightness Sun altitude
Rises 14:01:52 0° 212° (SSW) 6,032 13.2 19.6°
Reaches altitude 10° 14:05:59 10° 204° (SSW) 5,354 13.3 19.2°
Maximum altitude 14:20:34 35° 146° (SE) 4,329 11.2 17.6°
Drops below altitude 10° 14:37:04 10° 90° (E) 6,077 11.2 15.7°
Sets 14:42:05 0° 83° (E) 6,913 11.4 15.1°
